Lid_Strength_Index
14 13 13 13 12 12 12 11 11 11 10 10 8 8 7 6 6 5 6 6 4 5 5 5 5 4 5 5 5 6 7 7 11 10 9 9 9 9 9 8 9 9 9
14 14 13 13 12 12 12 11 11 11 10 9 9 8 7 6 5 6 6 7 6 6 5 5 5 5 5 5 6 6 7 8 10 11 10 10 10 10 10 10 10 10 10
14 14 13 13 13 12 12 11 11 10 10 10 9 8 7 6 4 5 6 7 7 7 6 5 5 5 5 6 6 7 7 8 8 10 11 10 11 11 12 12 12 12 12
14 14 14 13 13 12 11 11 11 10 10 10 9 9 7 6 4 5 6 6 7 7 6 5 5 5 6 6 7 7 8 8 9 10 11 11 11 12 12 14 15 14 14
14 14 14 13 12 12 12 11 11 10 9 9 9 9 8 6 5 4 5 6 7 7 7 6 5 7 8 7 7 8 8 9 10 11 12 12 14 14 14 14 15 15 15
14 14 14 13 13 12 12 12 11 10 10 8 8 8 9 7 7 8 7 6 7 7 8 8 8 10 9 9 8 8 7 9 10 11 12 13 13 13 14 15 16 17 18
13 13 13 13 13 13 12 12 11 10 9 8 8 8 9 8 8 9 9 6 7 7 7 8 9 9 9 8 9 9 10 9 9 9 11 11 13 13 14 15 15 15 16
13 13 13 13 13 13 12 12 11 10 9 8 8 8 9 8 9 9 10 6 7 7 7 8 8 8 8 9 9 9 9 9 9 9 9 10 11 12 13 13 14 16 15
13 13 12 12 12 13 12 12 11 11 10 9 9 9 9 8 10 10 9 7 8 8 8 8 8 9 11 10 10 11 12 12 10 9 9 10 10 11 12 14 15 15 16
14 13 13 12 12 12 12 12 12 10 11 13 11 10 12 9 10 10 8 8 9 12 10 10 12 9 11 10 11 12 13 13 12 13 11 11 11 11 11 10 12 13 14
15 14 13 12 12 11 12 13 12 11 12 12 12 12 12 12 10 10 10 8 10 12 12 12 13 11 11 10 10 11 11 12 11 12 13 13 12 12 11 12 11 12 13
14 14 14 13 13 12 12 12 12 11 12 13 13 14 14 13 12 10 10 9 9 12 12 13 12 11 11 10 12 11 11 12 13 13 12 13 14 14 12 12 14 15 15
13 13 13 13 13 13 12 12 12 12 13 13 13 14 14 14 13 11 10 10 10 12 13 12 11 11 11 11 11 11 13 13 13 14 14 13 11 13 16 15 16 17 17
12 13 13 13 13 12 12 12 12 12 13 13 13 13 13 13 13 13 13 13 12 13 13 13 12 12 11 12 13 13 13 13 13 13 14 17 16 14 14 15 16 15 17
12 12 12 12 12 12 12 12 12 12 12 12 12 12 13 13 12 12 12 14 13 13 13 14 14 14 14 14 14 14 14 14 13 14 15 16 16 16 16 15 14 15 16
15 15 14 11 11 11 11 12 10 10 10 10 10 11 12 11 10 10 10 11 11 12 13 14 14 14 13 14 14 14 14 14 13 14 14 15 16 16 17 17 17 16 16
16 15 16 15 13 12 12 12 12 11 10 9 9 9 9 10 10 10 10 10 11 11 13 13 13 14 13 13 13 14 14 14 13 14 14 14 15 15 16 17 17 17 18
20 16 14 14 14 14 12 12 12 12 12 11 10 10 10 10 10 10 10 11 13 12 13 13 13 13 13 13 13 13 14 14 14 14 14 14 14 15 16 17 17 17 18
21 20 16 14 14 13 13 13 12 12 12 12 12 10 11 10 10 9 9 12 13 13 13 13 13 13 13 13 13 13 13 14 14 14 14 14 14 15 16 16 17 17 18
25 23 24 22 19 15 13 14 13 13 12 12 12 11 11 11 11 11 11 11 12 13 13 13 13 12 13 13 12 13 13 13 14 14 14 14 15 15 15 16 17 19 20
25 25 25 21 20 18 14 14 13 13 13 13 12 11 10 11 11 11 11 11 11 12 13 13 13 13 13 13 13 12 12 13 13 14 14 14 16 16 16 17 17 18 19
25 24 21 17 15 15 15 14 14 14 13 13 12 12 10 11 11 11 11 11 11 12 13 13 13 13 13 13 13 12 12 13 13 13 13 14 16 16 17 18 19 20 20
25 26 25 25 23 19 16 15 14 14 14 13 13 12 12 12 11 11 11 11 10 11 12 12 13 12 13 13 13 12 13 13 12 12 13 14 15 16 17 18 19 20 21
28 27 27 28 27 27 25 21 19 16 14 13 13 13 13 12 12 11 11 10 11 10 11 12 12 13 12 13 13 13 13 12 12 13 12 13 14 15 17 18 19 19 20
31 30 30 30 31 30 28 27 25 24 21 18 17 15 13 12 12 11 11 11 10 10 10 10 11 11 11 12 12 13 12 13 12 13 13 13 14 15 16 17 18 19 20
30 30 30 30 29 30 30 28 26 25 24 22 21 20 19 17 16 14 14 12 11 11 10 10 10 10 11 11 12 12 13 13 13 13 13 13 14 15 16 17 17 18 20